Weather History for Lamar, CO

Change the Weather History Date:

Sunday, July 7, 2013

  Actual Average Record
Temperature  
Mean Temperature 82 °F 77 °F  
Max Temperature 98 °F 93 °F 106 °F (2001)
Min Temperature 66 °F 61 °F 47 °F (1922)
Degree Days  
Heating Degree Days 0 0  
Month to date heating degree days 0 0  
Since 1 June heating degree days 16 20  
Since 1 July heating degree days 0 0  
Cooling Degree Days 17 12  
Month to date cooling degree days 86 79  
Year to date cooling degree days 609 359  
Since 1 June cooling degree days 468 299  
Growing Degree Days 32 (Base 50)    
Moisture  
Dew Point 59 °F    
Average Humidity 56    
Maximum Humidity 87    
Minimum Humidity 24    
Precipitation  
Precipitation 0.00 in 0.07 in 0.98 in (1982)
Month to date precipitation 0.35 0.50  
Year to date precipitation 3.16 7.70  
Sea Level Pressure  
Sea Level Pressure 29.79 in    
Wind  
Wind Speed 8 mph (SW)    
Max Wind Speed 29 mph    
Max Gust Speed 35 mph    
Visibility 10 miles    
Events Thunderstorm    
T = Trace of Precipitation, MM = Missing Value Source: NWS Daily Summary

Daily Weather History Graph

Daily Weather History Graph

Search for Another Location

Airport:

Trip Planner

Search our weather history database for the weather conditions in past years. The results will help you decide how hot, cold, wet, or windy it might be!

Date:

Astronomy

Jul. 07, 2013 Rise Set
Actual Time 5:34 AM MDT 8:16 PM MDT
Civil Twilight 5:03 AM MDT 8:47 PM MDT
Nautical Twilight 4:25 AM MDT 9:26 PM MDT
Astronomical Twilight 3:41 AM MDT 10:09 PM MDT
Moon 5:11 AM MDT (7/7) 7:42 PM MDT (7/7)
Length of Visible Light 15h 43m
Length of Day
14h 41m
Waning Crescent, 0% of the Moon is Illuminated
Jul 7
Waning Crescent
Jul 8
New
Jul 15
First Quarter
Jul 22
Full
Jul 29
Last Quarter

Hourly Weather History & Observations

Time (MDT) Temp. Heat Index Dew Point Humidity Pressure Visibility Wind Dir Wind Speed Gust Speed Precip Events Conditions
12:53 AM 75.0 °F - 61.0 °F 62% 29.74 in 10.0 mi Calm Calm - N/A   Clear
1:53 AM 73.0 °F - 63.0 °F 71% 29.75 in 10.0 mi SSW 8.1 mph - N/A   Mostly Cloudy
2:53 AM 71.1 °F - 63.0 °F 75% 29.78 in 10.0 mi NW 8.1 mph - N/A   Partly Cloudy
3:53 AM 70.0 °F - 63.0 °F 78% 29.77 in 10.0 mi SSW 3.5 mph - N/A   Clear
4:53 AM 68.0 °F - 63.0 °F 84% 29.77 in 10.0 mi Calm Calm - N/A   Clear
5:53 AM 66.0 °F - 63.0 °F 90% 29.78 in 10.0 mi SSW 4.6 mph - N/A   Clear
6:53 AM 70.0 °F - 63.0 °F 78% 29.79 in 10.0 mi SSW 4.6 mph - N/A   Clear
7:53 AM 73.9 °F - 63.0 °F 68% 29.84 in 10.0 mi WSW 9.2 mph - N/A   Clear
8:53 AM 78.1 °F - 61.0 °F 56% 29.83 in 10.0 mi West 4.6 mph - N/A   Clear
9:53 AM 81.0 °F 81.3 °F 59.0 °F 47% 29.82 in 10.0 mi West 3.5 mph - N/A   Clear
10:53 AM 84.9 °F 84.8 °F 60.1 °F 43% 29.81 in 10.0 mi NNW 5.8 mph - N/A   Clear
11:53 AM 89.1 °F 88.0 °F 57.9 °F 35% 29.79 in 10.0 mi Variable 4.6 mph - N/A   Clear
12:53 PM 91.9 °F 90.6 °F 57.0 °F 31% 29.79 in 10.0 mi Variable 3.5 mph - N/A   Clear
1:53 PM 96.1 °F 94.1 °F 55.0 °F 25% 29.76 in 10.0 mi NNE 3.5 mph - N/A   Clear
2:53 PM 97.0 °F 94.6 °F 54.0 °F 23% 29.74 in 10.0 mi Variable 5.8 mph - N/A   Clear
3:34 PM 95.0 °F 92.7 °F 53.6 °F 25% 29.91 in 10.0 mi SSW 16.1 mph 21.9 mph N/A Thunderstorm Partly Cloudy
3:49 PM 93.2 °F 91.3 °F 55.4 °F 28% 29.91 in 10.0 mi SSW 13.8 mph - N/A   Clear
3:53 PM 93.9 °F 92.0 °F 55.0 °F 27% 29.74 in 10.0 mi SSW 17.3 mph 23.0 mph N/A   Clear
4:53 PM 93.0 °F 91.7 °F 57.0 °F 30% 29.73 in 10.0 mi South 15.0 mph - N/A   Clear
5:53 PM 88.0 °F 86.7 °F 57.0 °F 35% 29.75 in 10.0 mi SSE 21.9 mph 28.8 mph N/A   Clear
6:53 PM 88.0 °F 86.9 °F 57.9 °F 36% 29.73 in 10.0 mi South 21.9 mph - N/A   Clear
7:53 PM 86.0 °F 84.7 °F 55.9 °F 36% 29.77 in 10.0 mi SSW 16.1 mph - N/A   Clear
8:53 PM 82.9 °F 82.6 °F 57.9 °F 42% 29.79 in 10.0 mi South 6.9 mph - N/A   Clear
9:53 PM 81.0 °F 81.6 °F 60.1 °F 49% 29.84 in 10.0 mi Variable 4.6 mph - N/A   Partly Cloudy
10:53 PM 75.9 °F - 59.0 °F 56% 29.85 in 10.0 mi NE 13.8 mph - N/A   Clear
11:53 PM 75.0 °F - 60.1 °F 60% 29.84 in 10.0 mi ENE 9.2 mph - N/A   Clear